Precipitable_Water
0.73 0.79 0.85 0.89 0.93 0.93 0.93 0.93 0.93 0.93 0.93 0.93 0.91 0.91 0.89 0.89 0.87 0.85 0.85 0.87 0.85 0.85 0.85 0.87 0.89 0.89 0.89 0.89 0.89 0.89 0.89 0.89 0.89 0.89 0.93 0.95 0.97 0.97 0.97 0.99 1.01 1.03 1.05 1.05 1.03 1.01 0.99 0.95 0.95 0.95 0.95 0.97 0.99 1.03 1.05 1.07 1.07 1.05 1.05 1.05 1.05 1.07 1.07 1.07 1.05 1.05 1.07 1.09 1.11
0.73 0.79 0.85 0.91 0.93 0.93 0.95 0.93 0.93 0.93 0.93 0.93 0.93 0.93 0.93 0.95 0.89 0.89 0.89 0.89 0.87 0.87 0.87 0.87 0.87 0.87 0.87 0.87 0.87 0.85 0.85 0.85 0.85 0.87 0.91 0.95 0.95 0.97 0.97 0.97 0.99 1.01 1.03 1.03 1.03 1.01 0.97 0.95 0.91 0.93 0.95 0.99 1.01 1.03 1.05 1.09 1.09 1.07 1.05 1.05 1.05 1.07 1.07 1.07 1.07 1.07 1.07 1.07 1.11
0.71 0.77 0.85 0.89 0.91 0.91 0.93 0.93 0.93 0.95 0.95 0.95 0.95 0.95 0.95 0.95 0.93 0.91 0.91 0.91 0.89 0.89 0.89 0.87 0.87 0.87 0.85 0.85 0.85 0.85 0.85 0.83 0.83 0.85 0.87 0.93 0.95 0.95 0.97 0.97 0.97 0.99 1.01 1.03 1.01 1.01 0.97 0.95 0.93 0.95 0.97 0.99 1.01 1.03 1.05 1.09 1.09 1.09 1.07 1.05 1.07 1.07 1.07 1.07 1.07 1.07 1.09 1.09 1.11
0.73 0.77 0.83 0.89 0.89 0.91 0.93 0.95 0.95 0.97 0.97 0.97 0.95 0.95 0.93 0.93 0.93 0.91 0.91 0.89 0.89 0.89 0.87 0.87 0.87 0.87 0.85 0.85 0.85 0.85 0.83 0.83 0.81 0.81 0.83 0.85 0.91 0.93 0.95 0.95 0.95 0.97 0.97 0.99 0.99 0.99 0.97 0.93 0.93 0.95 0.99 0.99 1.01 1.01 1.03 1.07 1.09 1.09 1.09 1.09 1.09 1.09 1.07 1.07 1.09 1.09 1.09 1.09 1.11
0.75 0.81 0.85 0.89 0.91 0.95 0.97 0.99 1.01 1.01 0.99 0.97 0.95 0.93 0.93 0.91 0.89 0.87 0.87 0.85 0.85 0.85 0.85 0.85 0.85 0.85 0.85 0.85 0.85 0.83 0.83 0.81 0.81 0.79 0.81 0.83 0.89 0.93 0.93 0.95 0.95 0.95 0.95 0.97 0.97 0.97 0.95 0.93 0.95 0.97 0.99 0.99 1.01 1.03 1.05 1.09 1.09 1.09 1.09 1.09 1.07 1.07 1.07 1.07 1.09 1.09 1.09 1.09 1.09
0.81 0.85 0.89 0.93 0.97 0.99 1.01 1.03 1.03 1.03 1.01 0.99 0.95 0.93 0.91 0.91 0.85 0.81 0.79 0.79 0.79 0.79 0.81 0.83 0.83 0.81 0.81 0.81 0.81 0.81 0.81 0.79 0.79 0.77 0.77 0.79 0.87 0.89 0.91 0.93 0.93 0.93 0.93 0.95 0.95 0.93 0.91 0.93 0.95 0.97 0.99 0.99 1.03 1.05 1.09 1.11 1.11 1.11 1.07 1.03 1.03 1.05 1.05 1.07 1.09 1.09 1.09 1.09 1.09
0.83 0.87 0.91 0.95 0.97 0.99 1.01 1.03 1.03 1.03 1.01 0.99 0.97 0.93 0.91 0.89 0.83 0.79 0.77 0.75 0.77 0.77 0.77 0.77 0.77 0.77 0.77 0.77 0.79 0.79 0.77 0.77 0.77 0.77 0.77 0.77 0.81 0.85 0.89 0.91 0.93 0.93 0.93 0.93 0.93 0.91 0.91 0.91 0.95 0.95 0.97 1.01 1.05 1.09 1.11 1.13 1.11 1.09 1.03 0.99 0.99 0.99 1.01 1.05 1.09 1.09 1.09 1.09 1.09
0.81 0.83 0.87 0.93 0.95 0.97 0.97 0.99 0.99 0.99 0.99 0.97 0.95 0.93 0.91 0.89 0.81 0.79 0.77 0.75 0.75 0.73 0.73 0.73 0.75 0.75 0.75 0.75 0.75 0.75 0.75 0.75 0.75 0.77 0.77 0.77 0.79 0.83 0.87 0.89 0.91 0.91 0.93 0.93 0.91 0.91 0.89 0.91 0.93 0.95 0.95 0.97 1.05 1.09 1.11 1.11 1.09 1.05 1.01 0.95 0.95 0.95 0.99 1.01 1.05 1.09 1.09 1.09 1.07
0.75 0.77 0.81 0.89 0.91 0.93 0.95 0.95 0.97 0.97 0.95 0.95 0.93 0.93 0.91 0.87 0.81 0.79 0.77 0.75 0.73 0.73 0.73 0.73 0.73 0.75 0.75 0.73 0.73 0.75 0.75 0.75 0.77 0.77 0.77 0.79 0.79 0.83 0.85 0.89 0.89 0.91 0.91 0.91 0.91 0.89 0.89 0.87 0.89 0.91 0.93 0.95 1.01 1.05 1.07 1.07 1.05 1.03 0.99 0.97 0.93 0.93 0.93 0.97 1.01 1.05 1.05 1.03 1.01
0.71 0.73 0.77 0.81 0.85 0.87 0.89 0.93 0.93 0.93 0.91 0.91 0.89 0.89 0.87 0.85 0.79 0.75 0.75 0.75 0.73 0.73 0.73 0.73 0.73 0.73 0.73 0.73 0.73 0.73 0.73 0.75 0.77 0.79 0.79 0.79 0.79 0.79 0.81 0.87 0.87 0.89 0.89 0.91 0.89 0.89 0.87 0.85 0.85 0.85 0.87 0.91 0.93 0.97 1.01 1.03 0.99 0.99 0.97 0.97 0.93 0.91 0.89 0.91 0.95 0.97 0.99 0.97 0.97
0.69 0.71 0.75 0.77 0.79 0.83 0.85 0.85 0.85 0.85 0.85 0.83 0.83 0.81 0.79 0.77 0.75 0.75 0.73 0.73 0.73 0.73 0.73 0.73 0.73 0.73 0.73 0.73 0.73 0.73 0.73 0.73 0.77 0.79 0.79 0.79 0.79 0.79 0.81 0.85 0.87 0.87 0.87 0.87 0.87 0.87 0.87 0.83 0.81 0.81 0.83 0.85 0.89 0.91 0.95 0.97 0.95 0.95 0.95 0.95 0.93 0.89 0.87 0.87 0.89 0.91 0.93 0.89 0.91
0.67 0.69 0.71 0.73 0.77 0.79 0.79 0.81 0.81 0.81 0.81 0.79 0.79 0.77 0.77 0.75 0.73 0.73 0.73 0.71 0.71 0.71 0.73 0.73 0.73 0.73 0.73 0.73 0.73 0.73 0.73 0.73 0.75 0.79 0.79 0.81 0.81 0.81 0.81 0.81 0.85 0.85 0.87 0.85 0.85 0.85 0.85 0.81 0.79 0.77 0.79 0.81 0.85 0.87 0.89 0.89 0.87 0.87 0.89 0.89 0.89 0.87 0.85 0.83 0.85 0.85 0.85 0.83 0.83
0.67 0.69 0.69 0.71 0.73 0.75 0.77 0.77 0.77 0.77 0.77 0.77 0.75 0.75 0.75 0.73 0.73 0.71 0.71 0.69 0.71 0.71 0.71 0.73 0.73 0.73 0.73 0.73 0.73 0.73 0.73 0.73 0.75 0.77 0.79 0.81 0.81 0.81 0.81 0.81 0.83 0.83 0.83 0.83 0.83 0.83 0.83 0.81 0.77 0.77 0.77 0.79 0.81 0.83 0.85 0.83 0.81 0.81 0.81 0.85 0.85 0.85 0.83 0.81 0.81 0.79 0.77 0.77 0.77
0.65 0.67 0.69 0.69 0.71 0.73 0.73 0.75 0.75 0.75 0.75 0.75 0.73 0.73 0.73 0.73 0.71 0.69 0.69 0.69 0.69 0.69 0.71 0.71 0.71 0.71 0.71 0.71 0.73 0.73 0.73 0.73 0.71 0.73 0.77 0.79 0.81 0.81 0.81 0.81 0.83 0.83 0.81 0.81 0.81 0.79 0.79 0.77 0.77 0.77 0.77 0.79 0.79 0.81 0.81 0.79 0.79 0.77 0.77 0.79 0.81 0.81 0.81 0.79 0.79 0.77 0.73 0.73 0.75
0.64 0.65 0.67 0.67 0.69 0.69 0.71 0.71 0.73 0.73 0.73 0.73 0.73 0.73 0.71 0.71 0.69 0.69 0.67 0.67 0.69 0.69 0.69 0.69 0.69 0.69 0.69 0.69 0.71 0.71 0.73 0.73 0.71 0.73 0.75 0.77 0.79 0.81 0.81 0.81 0.81 0.81 0.79 0.77 0.77 0.75 0.75 0.75 0.77 0.77 0.79 0.77 0.79 0.79 0.79 0.77 0.77 0.77 0.77 0.77 0.79 0.79 0.79 0.79 0.77 0.77 0.75 0.73 0.75
0.64 0.65 0.65 0.65 0.67 0.67 0.69 0.69 0.71 0.71 0.71 0.71 0.71 0.71 0.69 0.69 0.67 0.65 0.65 0.65 0.67 0.67 0.67 0.67 0.67 0.67 0.67 0.67 0.69 0.71 0.71 0.71 0.71 0.71 0.71 0.75 0.77 0.79 0.81 0.81 0.79 0.79 0.77 0.75 0.75 0.75 0.75 0.77 0.77 0.79 0.79 0.79 0.79 0.79 0.79 0.77 0.77 0.77 0.77 0.77 0.79 0.81 0.81 0.79 0.79 0.77 0.75 0.75 0.75
0.64 0.64 0.65 0.65 0.65 0.65 0.67 0.67 0.69 0.69 0.69 0.69 0.69 0.69 0.67 0.65 0.65 0.64 0.64 0.64 0.65 0.65 0.64 0.64 0.64 0.64 0.65 0.65 0.67 0.69 0.69 0.69 0.69 0.69 0.69 0.71 0.75 0.77 0.77 0.77 0.77 0.77 0.75 0.75 0.75 0.75 0.77 0.77 0.77 0.79 0.79 0.79 0.79 0.79 0.79 0.77 0.77 0.77 0.75 0.77 0.79 0.81 0.81 0.81 0.79 0.79 0.79 0.79 0.79
0.62 0.64 0.64 0.64 0.64 0.65 0.65 0.65 0.67 0.67 0.67 0.67 0.67 0.67 0.65 0.64 0.64 0.62 0.62 0.62 0.62 0.62 0.62 0.62 0.62 0.62 0.64 0.65 0.65 0.67 0.67 0.67 0.67 0.67 0.67 0.69 0.73 0.73 0.73 0.73 0.73 0.73 0.75 0.75 0.77 0.77 0.77 0.77 0.77 0.79 0.79 0.79 0.79 0.79 0.77 0.75 0.75 0.75 0.75 0.77 0.79 0.81 0.83 0.81 0.83 0.83 0.83 0.83 0.83
0.60 0.60 0.62 0.62 0.64 0.64 0.64 0.65 0.65 0.65 0.65 0.65 0.65 0.64 0.64 0.62 0.62 0.60 0.60 0.60 0.60 0.60 0.60 0.60 0.60 0.62 0.62 0.64 0.64 0.64 0.65 0.65 0.65 0.65 0.65 0.67 0.71 0.71 0.71 0.71 0.71 0.73 0.75 0.77 0.77 0.79 0.79 0.77 0.77 0.77 0.79 0.79 0.79 0.77 0.75 0.73 0.73 0.73 0.75 0.77 0.79 0.81 0.83 0.81 0.85 0.87 0.87 0.87 0.87
0.56 0.58 0.60 0.60 0.60 0.62 0.62 0.62 0.62 0.64 0.64 0.64 0.64 0.62 0.62 0.60 0.60 0.58 0.58 0.58 0.58 0.58 0.58 0.58 0.58 0.60 0.60 0.62 0.62 0.62 0.62 0.64 0.64 0.64 0.64 0.65 0.69 0.71 0.71 0.71 0.71 0.71 0.73 0.77 0.77 0.77 0.77 0.77 0.75 0.77 0.77 0.79 0.77 0.75 0.73 0.69 0.69 0.71 0.73 0.75 0.77 0.79 0.79 0.79 0.83 0.85 0.87 0.87 0.85
0.56 0.56 0.56 0.58 0.58 0.58 0.60 0.60 0.60 0.60 0.62 0.62 0.60 0.60 0.60 0.60 0.58 0.58 0.56 0.56 0.56 0.56 0.56 0.56 0.56 0.56 0.58 0.58 0.58 0.60 0.60 0.62 0.62 0.62 0.62 0.64 0.67 0.71 0.71 0.71 0.69 0.69 0.71 0.73 0.75 0.75 0.75 0.73 0.73 0.73 0.73 0.73 0.71 0.71 0.69 0.67 0.67 0.69 0.71 0.73 0.75 0.75 0.75 0.75 0.77 0.79 0.81 0.79 0.79
0.54 0.56 0.56 0.56 0.56 0.58 0.58 0.58 0.58 0.58 0.58 0.60 0.60 0.60 0.60 0.58 0.58 0.58 0.58 0.56 0.56 0.56 0.56 0.54 0.54 0.54 0.54 0.56 0.56 0.58 0.58 0.60 0.60 0.62 0.62 0.62 0.65 0.69 0.71 0.71 0.69 0.67 0.67 0.69 0.69 0.71 0.69 0.69 0.69 0.71 0.69 0.67 0.65 0.65 0.65 0.64 0.64 0.65 0.67 0.69 0.71 0.71 0.71 0.69 0.69 0.71 0.71 0.73 0.71
0.54 0.54 0.56 0.56 0.56 0.56 0.56 0.56 0.56 0.58 0.58 0.58 0.58 0.58 0.58 0.58 0.58 0.58 0.58 0.56 0.56 0.54 0.54 0.54 0.54 0.54 0.54 0.54 0.56 0.56 0.58 0.60 0.60 0.60 0.60 0.60 0.62 0.65 0.67 0.69 0.67 0.65 0.65 0.65 0.65 0.65 0.65 0.65 0.65 0.65 0.64 0.62 0.62 0.60 0.60 0.60 0.60 0.62 0.62 0.65 0.65 0.65 0.64 0.62 0.64 0.64 0.65 0.65 0.67
0.54 0.54 0.56 0.56 0.56 0.56 0.56 0.56 0.56 0.56 0.56 0.56 0.56 0.56 0.56 0.56 0.56 0.56 0.56 0.56 0.54 0.54 0.54 0.54 0.52 0.52 0.52 0.54 0.54 0.56 0.56 0.58 0.58 0.58 0.58 0.58 0.58 0.60 0.64 0.65 0.64 0.64 0.62 0.62 0.62 0.62 0.62 0.62 0.62 0.60 0.58 0.58 0.56 0.56 0.56 0.56 0.56 0.56 0.58 0.58 0.60 0.58 0.56 0.58 0.58 0.60 0.60 0.62 0.62
0.54 0.54 0.56 0.56 0.56 0.56 0.56 0.56 0.56 0.56 0.56 0.56 0.56 0.56 0.56 0.56 0.56 0.56 0.56 0.54 0.54 0.54 0.54 0.52 0.52 0.52 0.52 0.52 0.52 0.54 0.56 0.58 0.58 0.58 0.56 0.56 0.54 0.56 0.60 0.62 0.62 0.62 0.60 0.60 0.60 0.60 0.60 0.58 0.58 0.56 0.54 0.54 0.54 0.52 0.52 0.52 0.52 0.52 0.54 0.54 0.54 0.54 0.52 0.52 0.54 0.56 0.56 0.58 0.58
0.56 0.56 0.56 0.56 0.56 0.56 0.56 0.56 0.56 0.56 0.56 0.56 0.56 0.56 0.56 0.56 0.56 0.54 0.54 0.54 0.54 0.54 0.52 0.52 0.52 0.50 0.50 0.50 0.50 0.54 0.56 0.58 0.58 0.58 0.56 0.54 0.54 0.54 0.56 0.60 0.62 0.62 0.60 0.60 0.58 0.58 0.56 0.56 0.54 0.52 0.52 0.50 0.50 0.50 0.50 0.50 0.50 0.50 0.50 0.50 0.48 0.48 0.48 0.48 0.50 0.50 0.52 0.54 0.54
0.56 0.56 0.56 0.56 0.56 0.56 0.56 0.56 0.56 0.56 0.56 0.56 0.56 0.56 0.56 0.56 0.56 0.54 0.54 0.54 0.54 0.52 0.52 0.52 0.52 0.50 0.50 0.50 0.52 0.52 0.56 0.60 0.60 0.58 0.56 0.54 0.52 0.52 0.54 0.58 0.60 0.62 0.62 0.60 0.58 0.56 0.54 0.54 0.52 0.50 0.50 0.50 0.48 0.48 0.48 0.48 0.48 0.48 0.48 0.48 0.46 0.44 0.44 0.44 0.44 0.46 0.48 0.48 0.50
0.56 0.56 0.56 0.56 0.56 0.56 0.56 0.56 0.56 0.56 0.56 0.56 0.56 0.56 0.56 0.56 0.56 0.54 0.54 0.54 0.54 0.54 0.52 0.52 0.52 0.52 0.52 0.50 0.52 0.54 0.56 0.60 0.60 0.58 0.56 0.54 0.54 0.52 0.54 0.56 0.60 0.64 0.64 0.60 0.56 0.54 0.52 0.54 0.52 0.52 0.50 0.50 0.48 0.48 0.48 0.46 0.46 0.46 0.46 0.44 0.44 0.42 0.42 0.42 0.42 0.42 0.44 0.44 0.46
0.54 0.54 0.56 0.56 0.56 0.56 0.56 0.56 0.56 0.56 0.56 0.56 0.56 0.56 0.56 0.56 0.54 0.54 0.54 0.54 0.54 0.52 0.52 0.52 0.52 0.52 0.52 0.52 0.54 0.56 0.58 0.60 0.60 0.58 0.56 0.54 0.52 0.52 0.54 0.56 0.60 0.62 0.62 0.58 0.56 0.54 0.54 0.56 0.56 0.54 0.54 0.52 0.50 0.50 0.48 0.48 0.46 0.46 0.46 0.44 0.44 0.44 0.44 0.44 0.42 0.42 0.42 0.42 0.42
0.52 0.54 0.54 0.54 0.54 0.54 0.54 0.56 0.56 0.56 0.56 0.56 0.56 0.56 0.56 0.54 0.54 0.54 0.52 0.52 0.52 0.52 0.52 0.52 0.52 0.50 0.52 0.52 0.54 0.56 0.60 0.60 0.60 0.58 0.56 0.52 0.50 0.50 0.52 0.54 0.58 0.60 0.60 0.58 0.56 0.56 0.56 0.54 0.54 0.54 0.52 0.52 0.52 0.52 0.50 0.50 0.48 0.48 0.48 0.48 0.46 0.46 0.44 0.44 0.44 0.42 0.42 0.42 0.42
0.50 0.50 0.50 0.50 0.52 0.52 0.54 0.54 0.54 0.56 0.56 0.56 0.54 0.54 0.54 0.52 0.52 0.52 0.52 0.50 0.50 0.52 0.52 0.50 0.50 0.50 0.52 0.54 0.56 0.58 0.58 0.60 0.58 0.56 0.54 0.52 0.50 0.50 0.52 0.54 0.56 0.58 0.58 0.58 0.58 0.54 0.50 0.50 0.50 0.50 0.50 0.50 0.52 0.52 0.50 0.50 0.50 0.48 0.48 0.46 0.46 0.44 0.44 0.44 0.42 0.42 0.42 0.42 0.42
0.50 0.50 0.50 0.48 0.50 0.50 0.50 0.50 0.52 0.54 0.54 0.52 0.52 0.52 0.50 0.50 0.50 0.50 0.50 0.50 0.50 0.50 0.50 0.50 0.50 0.50 0.50 0.52 0.54 0.56 0.58 0.60 0.58 0.56 0.54 0.52 0.52 0.52 0.56 0.58 0.60 0.60 0.60 0.58 0.54 0.50 0.48 0.46 0.46 0.46 0.46 0.48 0.48 0.48 0.48 0.48 0.48 0.48 0.46 0.44 0.44 0.44 0.44 0.42 0.42 0.42 0.42 0.42 0.40
0.50 0.50 0.48 0.48 0.48 0.48 0.48 0.50 0.50 0.50 0.50 0.50 0.50 0.50 0.50 0.50 0.50 0.50 0.50 0.50 0.50 0.50 0.48 0.48 0.48 0.50 0.50 0.52 0.54 0.56 0.58 0.58 0.58 0.56 0.54 0.54 0.54 0.56 0.58 0.58 0.58 0.58 0.56 0.54 0.50 0.48 0.46 0.44 0.44 0.44 0.46 0.46 0.46 0.46 0.46 0.46 0.46 0.44 0.44 0.42 0.44 0.44 0.44 0.42 0.42 0.42 0.42 0.42 0.40
0.50 0.50 0.50 0.48 0.48 0.48 0.48 0.50 0.50 0.50 0.50 0.50 0.50 0.50 0.50 0.50 0.48 0.48 0.48 0.50 0.50 0.50 0.50 0.48 0.50 0.50 0.52 0.54 0.58 0.58 0.58 0.58 0.56 0.56 0.54 0.54 0.54 0.54 0.56 0.56 0.56 0.54 0.52 0.50 0.48 0.48 0.46 0.46 0.46 0.46 0.46 0.46 0.46 0.46 0.44 0.44 0.44 0.42 0.42 0.42 0.42 0.42 0.42 0.42 0.42 0.40 0.40 0.40 0.36
0.50 0.50 0.50 0.50 0.50 0.50 0.50 0.50 0.50 0.50 0.50 0.50 0.50 0.50 0.50 0.50 0.50 0.50 0.50 0.50 0.50 0.50 0.50 0.50 0.50 0.52 0.54 0.58 0.60 0.60 0.58 0.56 0.56 0.56 0.54 0.52 0.52 0.52 0.52 0.52 0.52 0.52 0.52 0.50 0.50 0.50 0.50 0.50 0.48 0.48 0.46 0.46 0.44 0.44 0.44 0.42 0.42 0.42 0.40 0.40 0.40 0.40 0.40 0.40 0.40 0.38 0.38 0.36 0.34
0.50 0.50 0.50 0.50 0.50 0.50 0.50 0.50 0.50 0.50 0.50 0.50 0.50 0.50 0.52 0.52 0.52 0.54 0.54 0.54 0.52 0.52 0.50 0.52 0.52 0.54 0.56 0.58 0.60 0.60 0.58 0.56 0.56 0.54 0.54 0.52 0.52 0.50 0.50 0.50 0.52 0.52 0.52 0.52 0.50 0.50 0.50 0.50 0.48 0.48 0.46 0.44 0.44 0.42 0.42 0.42 0.40 0.38 0.38 0.38 0.38 0.38 0.36 0.36 0.36 0.36 0.34 0.32 0.30
0.52 0.50 0.50 0.50 0.50 0.50 0.50 0.50 0.50 0.50 0.50 0.50 0.50 0.52 0.54 0.56 0.56 0.58 0.58 0.58 0.56 0.56 0.54 0.54 0.54 0.56 0.56 0.58 0.58 0.58 0.58 0.56 0.56 0.54 0.54 0.54 0.52 0.52 0.52 0.52 0.52 0.52 0.52 0.52 0.50 0.50 0.50 0.48 0.48 0.46 0.46 0.44 0.42 0.42 0.40 0.38 0.38 0.36 0.36 0.34 0.34 0.34 0.32 0.32 0.32 0.30 0.30 0.28 0.28
0.52 0.52 0.52 0.50 0.50 0.50 0.50 0.48 0.48 0.50 0.50 0.50 0.50 0.52 0.56 0.58 0.58 0.58 0.60 0.60 0.60 0.58 0.58 0.58 0.58 0.58 0.58 0.58 0.58 0.58 0.58 0.58 0.56 0.56 0.56 0.56 0.56 0.56 0.54 0.54 0.54 0.54 0.52 0.52 0.50 0.50 0.48 0.48 0.46 0.46 0.44 0.42 0.42 0.40 0.38 0.36 0.34 0.34 0.32 0.32 0.32 0.30 0.30 0.30 0.28 0.28 0.26 0.26 0.26
0.54 0.52 0.52 0.52 0.52 0.52 0.50 0.48 0.48 0.48 0.48 0.48 0.50 0.54 0.56 0.56 0.58 0.58 0.58 0.60 0.60 0.60 0.60 0.60 0.60 0.60 0.60 0.60 0.60 0.58 0.58 0.58 0.58 0.58 0.58 0.58 0.58 0.56 0.56 0.52 0.52 0.52 0.52 0.52 0.50 0.48 0.48 0.46 0.46 0.44 0.42 0.40 0.40 0.38 0.38 0.36 0.34 0.32 0.30 0.28 0.28 0.28 0.28 0.28 0.26 0.26 0.26 0.26 0.26
0.50 0.52 0.52 0.52 0.54 0.54 0.52 0.50 0.50 0.48 0.50 0.50 0.52 0.54 0.56 0.56 0.56 0.56 0.56 0.56 0.58 0.58 0.58 0.58 0.58 0.58 0.58 0.58 0.58 0.56 0.56 0.56 0.58 0.58 0.56 0.56 0.56 0.54 0.50 0.46 0.46 0.48 0.50 0.50 0.48 0.46 0.44 0.44 0.42 0.42 0.40 0.40 0.38 0.36 0.36 0.34 0.32 0.30 0.28 0.28 0.26 0.26 0.26 0.26 0.26 0.26 0.26 0.26 0.26
0.42 0.44 0.46 0.48 0.48 0.50 0.50 0.50 0.50 0.50 0.50 0.52 0.52 0.52 0.52 0.54 0.52 0.52 0.52 0.52 0.52 0.52 0.52 0.54 0.54 0.54 0.54 0.54 0.52 0.52 0.52 0.52 0.52 0.52 0.52 0.50 0.48 0.44 0.42 0.42 0.42 0.42 0.44 0.46 0.44 0.42 0.42 0.40 0.40 0.38 0.38 0.36 0.36 0.34 0.32 0.30 0.30 0.28 0.26 0.26 0.26 0.26 0.26 0.26 0.26 0.26 0.26 0.26 0.26
Wind_Speed
41 41 40 39 37 36 35 34 34 33 33 33 33 33 32 32 31 31 30 30 29 29 29 29 29 29 28 28 28 29 29 29 29 29 29 29 28 28 27 27 27 27 27 27 28 28 28 28 28 28 29 28 28 27 27 27 27 27 26 26 26 26 26 26 26 26 25 25 25
41 41 40 40 39 39 38 37 36 35 34 33 33 33 32 32 32 31 30 30 30 30 30 30 30 30 29 29 29 30 30 30 30 30 30 30 29 29 29 28 28 28 28 28 28 28 28 29 29 29 29 29 28 27 27 27 27 27 26 26 26 26 26 26 26 26 25 25 25
40 40 40 40 40 40 40 39 38 37 36 35 34 33 33 32 32 32 31 31 31 31 31 31 31 31 31 31 31 31 31 32 32 32 31 31 31 30 30 29 29 29 29 29 29 29 29 29 29 29 29 29 28 28 28 28 27 27 26 26 26 26 26 25 25 25 25 25 25
39 40 40 40 40 40 40 40 39 38 38 37 36 35 34 34 33 33 33 33 33 33 33 33 33 33 33 33 33 33 33 33 33 33 33 32 32 31 31 30 30 30 30 30 30 30 30 30 30 30 29 29 28 28 28 28 27 27 27 26 26 26 25 25 25 25 25 25 24
37 38 39 39 39 39 39 39 38 38 38 38 37 36 36 35 35 35 35 34 34 34 34 35 35 35 35 35 34 34 34 34 34 34 34 34 33 32 32 31 31 31 30 30 30 31 31 30 30 30 29 29 29 28 28 28 27 27 26 26 26 26 25 25 25 25 25 25 25
34 36 37 37 38 38 38 38 37 37 37 37 37 36 36 36 36 36 35 35 35 35 36 36 36 36 36 35 35 35 35 35 35 35 35 34 34 33 33 32 32 31 31 31 31 31 31 31 30 30 30 29 29 28 28 28 27 27 26 26 26 26 25 24 25 25 26 25 25
31 33 34 35 36 36 37 37 37 37 36 36 36 35 35 35 35 35 35 35 35 35 36 36 36 36 35 35 34 34 35 35 35 35 35 34 34 34 33 32 32 32 31 31 31 31 31 31 30 30 29 29 28 28 28 28 28 27 27 26 26 26 25 25 25 26 26 26 25
28 29 31 32 33 34 35 36 36 36 36 36 35 34 34 34 34 34 34 35 35 35 35 35 34 34 34 34 34 34 34 34 34 34 34 34 34 33 33 33 32 32 32 32 32 31 31 31 31 30 30 29 28 28 28 28 28 28 27 27 27 26 25 25 26 26 26 25 25
26 27 28 29 30 32 33 34 35 35 35 35 35 34 34 33 33 33 34 34 34 34 34 34 34 33 33 33 33 32 32 32 32 32 32 33 33 33 33 33 32 32 32 32 32 32 31 31 31 31 30 30 29 28 28 27 27 27 27 27 27 26 26 26 26 26 26 26 25
25 26 26 27 28 29 30 31 31 32 33 33 34 34 34 34 33 33 33 33 33 33 33 33 33 33 32 32 32 31 31 31 31 31 32 32 32 32 33 33 32 32 32 32 32 32 32 32 31 31 31 31 30 29 29 28 28 27 27 27 27 26 26 26 26 26 26 26 26
25 25 26 26 27 27 27 28 28 29 30 31 33 33 34 34 33 33 33 33 32 32 32 32 32 32 32 32 31 31 31 31 31 31 32 32 32 32 33 33 33 32 32 32 33 32 32 32 31 31 31 31 31 31 31 30 29 28 27 27 27 27 26 27 27 28 28 27 27
24 25 25 26 26 27 27 27 27 27 28 29 30 31 32 33 33 33 33 32 32 32 32 31 31 31 32 32 31 31 31 32 32 32 32 32 32 32 32 33 33 32 32 32 33 33 32 32 32 31 31 32 32 32 32 31 30 29 28 27 27 27 27 27 28 29 29 28 28
23 24 24 25 26 26 26 27 27 27 27 28 28 29 30 31 32 33 33 32 32 32 32 31 31 32 32 32 32 32 32 32 33 33 32 32 32 32 32 32 32 32 32 32 33 33 32 32 32 32 32 32 32 32 32 31 31 30 29 28 28 28 28 28 29 29 29 29 29
22 23 23 24 25 25 26 26 27 27 27 27 27 28 28 29 30 31 31 32 31 31 31 31 31 31 32 32 32 32 32 32 33 33 33 32 32 32 32 32 32 32 32 32 32 32 32 32 32 32 32 32 32 32 32 31 31 30 29 29 28 28 28 28 29 29 29 29 29
22 22 23 23 24 24 25 25 26 26 27 27 27 27 27 28 28 29 29 30 30 30 30 30 30 30 30 30 30 30 31 31 32 32 32 32 32 32 32 32 32 32 32 32 32 32 32 32 32 32 31 31 31 31 31 31 31 30 30 29 28 28 28 28 28 29 29 28 28
21 22 22 23 23 23 24 25 25 26 26 27 27 27 28 28 28 28 28 28 28 28 28 28 28 28 28 28 28 28 29 29 30 31 31 31 31 31 31 32 32 32 32 32 32 32 32 32 32 31 31 31 31 31 31 31 30 30 29 28 28 27 27 27 27 27 27 27 26
20 21 21 22 22 23 23 24 25 25 25 26 27 27 27 28 28 28 28 28 28 28 28 27 27 27 27 27 27 27 27 28 28 29 30 30 30 31 31 31 31 31 31 32 32 32 32 32 31 31 31 31 31 31 30 30 30 30 29 28 27 27 27 27 27 27 27 26 26
19 20 20 21 21 22 23 23 24 24 25 25 26 27 27 27 28 28 28 28 28 28 28 27 27 27 26 26 26 26 26 26 27 28 28 29 29 30 30 30 30 30 30 31 31 31 31 31 31 31 30 30 30 30 30 30 30 29 29 28 27 27 27 27 27 27 27 27 27
18 19 19 20 20 21 22 23 23 24 25 25 26 26 27 27 27 27 28 28 28 28 28 27 27 27 26 26 26 25 25 26 26 26 27 28 28 28 29 29 29 29 29 29 29 30 30 30 30 30 30 30 30 30 29 29 29 29 28 27 27 27 27 28 28 28 27 27 26
18 18 19 20 20 21 21 22 23 24 24 25 26 26 26 27 27 27 27 27 27 27 27 27 27 27 26 26 26 25 25 26 26 26 26 27 27 27 27 27 27 28 28 28 28 29 29 29 29 29 29 29 29 28 28 28 28 28 27 27 27 27 27 28 27 27 26 26 26
17 18 19 19 20 21 21 22 23 24 24 25 25 26 26 26 27 27 27 27 27 27 27 27 27 26 26 26 26 26 26 26 26 26 26 26 26 26 26 26 26 27 27 27 27 28 28 28 28 28 28 28 28 28 28 28 28 27 27 27 27 27 27 27 27 26 26 25 25
16 17 18 19 20 20 21 22 22 23 24 24 25 25 26 26 26 26 26 27 26 26 26 26 26 26 26 27 27 27 26 26 26 26 26 26 26 25 25 25 25 26 26 26 27 27 27 27 27 27 27 28 28 28 28 27 27 27 27 26 26 26 26 27 27 26 26 25 25
16 17 17 18 19 20 21 21 22 22 23 24 24 25 25 25 26 26 26 26 26 26 26 26 26 26 26 26 27 27 26 26 26 26 26 26 25 25 25 25 24 24 25 25 25 25 26 26 26 26 26 27 27 27 27 26 26 26 26 26 26 26 26 26 26 26 26 26 26
15 16 16 17 18 19 20 20 21 21 22 23 23 24 24 25 25 25 26 26 25 25 26 26 26 26 26 26 26 26 26 26 26 25 25 25 25 25 24 24 23 23 24 24 24 24 24 24 25 25 25 25 25 25 25 25 26 26 26 26 26 26 26 26 26 26 26 26 26
14 15 15 16 17 18 18 19 20 20 21 22 22 23 23 24 24 25 25 25 25 25 25 26 26 26 26 26 26 25 25 25 25 24 25 25 25 25 24 23 23 23 23 23 22 23 23 23 24 24 24 24 25 25 25 25 25 25 25 26 26 26 26 27 27 27 27 26 27
13 14 15 15 16 17 17 18 19 19 20 20 21 21 22 23 23 24 24 24 25 25 25 25 26 26 26 25 25 25 24 24 24 24 24 24 24 24 24 23 22 22 22 21 21 22 22 22 23 23 23 24 24 24 24 24 24 25 25 26 26 26 27 27 27 27 27 27 27
13 13 14 15 15 16 16 17 17 18 18 19 19 20 21 21 22 23 23 24 24 25 25 25 25 25 25 25 24 24 23 23 23 23 23 23 23 23 23 23 22 22 21 21 21 21 21 21 22 22 22 23 23 23 23 23 24 24 24 25 26 26 26 27 27 27 27 27 27
13 13 14 14 15 15 16 16 16 17 17 18 18 19 19 20 21 21 22 23 24 24 25 25 25 25 25 24 24 23 23 23 23 23 23 23 23 23 23 22 22 22 22 22 21 21 21 21 21 21 21 22 22 22 22 23 23 23 24 24 25 25 26 26 27 27 27 27 27
12 13 13 14 14 15 15 15 15 15 16 16 17 17 18 19 19 20 21 22 22 23 24 24 24 24 24 23 23 23 22 22 22 22 22 22 22 22 22 22 22 22 22 22 21 20 20 20 20 20 20 21 21 21 22 22 22 23 23 24 24 24 25 25 25 26 26 26 26
12 13 13 13 14 14 14 14 14 15 15 16 16 16 17 17 18 18 19 20 21 21 22 23 23 23 22 22 22 22 22 22 21 21 21 21 21 21 21 21 22 22 22 21 20 20 20 20 20 20 20 20 20 21 21 22 22 22 23 23 23 24 24 24 24 24 24 25 25
11 11 12 12 12 13 13 13 13 14 14 15 15 15 15 16 16 17 18 18 19 20 20 21 21 21 21 21 21 21 21 21 21 20 20 20 20 20 21 21 22 22 21 21 20 20 20 21 21 20 20 20 21 21 21 21 21 22 22 22 22 23 23 23 23 23 23 23 23
9 9 10 10 11 11 12 12 12 13 13 13 14 14 14 15 15 16 16 17 17 18 18 19 19 20 20 21 21 21 21 20 20 20 20 20 20 20 21 22 22 22 21 20 20 21 21 21 21 21 20 20 21 21 21 21 21 21 22 22 22 22 22 22 22 22 22 22 23
6 7 7 8 9 9 10 10 11 11 12 12 12 13 13 14 14 15 15 16 16 17 17 18 19 19 20 20 20 20 20 20 20 20 20 20 21 21 22 22 21 21 20 20 20 21 21 21 20 20 20 20 21 21 21 21 21 21 21 21 21 21 21 21 22 22 22 22 23
5 5 5 6 7 8 8 9 9 10 10 11 11 11 12 12 13 13 14 15 15 16 16 17 18 18 19 19 20 20 20 20 20 20 21 21 21 21 21 21 21 20 20 20 20 20 20 20 20 19 19 20 20 21 21 21 21 21 21 21 21 21 21 21 21 22 22 22 23
5 5 5 5 6 6 7 7 8 8 8 9 9 9 10 11 12 12 13 14 15 15 16 16 17 18 18 19 20 20 19 19 19 19 20 20 20 20 20 20 20 19 19 19 19 19 19 19 19 19 19 20 20 20 20 20 21 21 20 20 21 21 21 21 21 22 22 22 23
6 6 6 6 6 7 7 7 7 7 7 7 8 8 9 9 11 12 13 14 15 15 16 16 17 17 18 19 19 19 19 18 18 18 19 19 19 19 19 19 19 19 19 19 19 18 18 18 19 19 19 20 20 20 20 20 20 20 20 20 20 20 21 21 21 21 22 22 22
6 7 7 7 8 8 8 8 8 7 7 7 8 8 8 8 9 11 12 14 15 15 15 16 16 17 18 18 19 19 18 18 18 18 18 18 18 19 19 19 18 18 18 17 17 17 18 18 18 18 19 19 19 19 19 19 19 19 20 20 20 20 20 21 21 21 22 22 22
6 6 7 8 8 8 8 8 8 8 8 8 9 9 8 7 7 8 10 12 13 13 13 14 14 15 16 17 17 17 17 17 17 17 17 17 17 17 17 17 16 16 16 16 16 16 17 17 17 17 18 18 18 18 18 19 19 19 19 20 20 20 20 21 21 21 22 22 23
5 6 6 7 7 7 7 7 8 8 9 9 10 9 8 7 6 7 8 10 11 12 12 12 12 13 14 14 14 14 14 14 15 15 15 15 15 15 15 14 14 14 14 14 15 15 15 16 16 16 17 17 18 18 18 19 19 19 20 20 20 20 21 21 21 22 22 23 23
6 6 6 6 6 6 6 6 7 8 9 10 10 9 8 8 8 8 8 9 10 11 11 12 12 13 13 12 12 11 11 11 11 12 12 12 12 13 13 13 13 13 13 13 13 14 15 15 15 16 16 17 18 18 19 19 19 19 20 20 20 21 21 22 22 22 23 23 23
7 7 7 7 7 6 6 7 7 8 9 9 9 8 8 8 9 8 8 8 9 10 11 11 12 12 12 12 11 10 10 10 10 10 11 11 11 12 12 12 12 12 12 12 13 13 14 14 15 15 16 17 18 19 19 19 20 20 20 20 21 21 21 22 22 23 23 23 23
Wind_Direction
234 234 234 233 232 231 231 232 232 232 231 231 230 229 228 228 228 229 230 230 231 232 233 234 236 238 241 243 245 246 247 248 249 249 250 250 251 251 251 251 251 251 251 250 250 251 252 253 254 255 255 256 256 256 257 256 256 256 256 256 257 256 256 256 256 256 256 255 256
233 234 234 234 234 234 234 234 234 234 234 233 232 230 229 228 229 230 231 233 234 235 236 237 238 241 243 246 247 248 249 249 250 250 250 251 251 251 251 251 251 251 251 251 251 251 252 253 253 254 255 256 256 256 256 256 255 255 255 255 255 255 255 255 255 255 255 255 255
232 233 233 234 235 235 236 236 237 237 237 236 235 233 231 231 231 233 235 236 238 239 240 240 242 244 247 249 250 250 250 250 250 250 250 251 251 251 251 251 251 251 251 251 251 251 252 253 253 254 254 255 255 255 255 255 255 254 254 254 253 253 253 253 254 254 255 255 255
230 231 232 233 234 235 237 237 238 238 238 238 237 237 236 236 236 238 239 240 241 242 243 244 245 248 251 253 252 251 250 249 249 250 250 250 250 251 251 251 251 251 251 251 251 251 252 252 253 253 253 254 254 254 254 253 253 253 253 253 253 253 253 253 254 255 255 255 255
229 229 230 232 233 235 236 236 237 238 238 238 239 239 240 240 241 242 243 243 244 244 245 247 249 251 253 254 253 251 250 249 249 249 249 249 250 250 250 250 251 251 251 251 251 251 251 252 252 252 252 252 252 252 252 251 251 252 252 253 253 253 254 255 256 256 256 256 256
228 229 230 231 232 233 234 235 236 237 238 239 239 240 241 242 243 243 244 244 245 246 248 250 251 252 253 253 252 250 249 248 249 249 249 249 249 249 250 250 250 250 250 251 250 250 250 251 251 251 251 251 251 251 251 250 250 251 252 253 253 253 254 255 256 256 256 255 254
228 228 229 230 231 232 233 234 235 236 237 238 239 239 240 242 242 242 243 244 246 248 249 250 251 252 252 251 250 249 248 248 248 249 249 248 249 249 249 249 249 249 249 250 249 249 249 249 249 249 249 249 250 250 251 251 251 252 252 253 253 253 253 254 255 255 253 252 251
228 228 229 229 230 231 232 233 235 236 237 237 238 238 239 240 240 241 242 244 246 247 248 249 249 249 250 249 248 248 247 247 247 248 248 248 248 248 248 248 248 248 248 248 248 248 248 248 248 248 248 248 248 249 251 252 252 252 252 253 253 252 252 253 254 254 253 251 250
231 230 230 230 230 231 232 233 234 235 235 236 237 237 238 238 239 240 241 243 244 245 246 246 247 247 247 247 247 246 246 246 246 247 247 248 248 248 247 247 247 247 247 247 246 246 246 246 246 247 247 247 246 247 248 249 250 252 252 253 253 252 251 251 253 254 254 253 253
233 233 232 231 231 231 232 232 233 234 234 235 236 236 237 238 238 239 240 241 242 242 243 244 245 245 245 245 245 245 244 245 245 246 247 247 247 247 246 246 246 245 245 245 245 245 245 245 245 245 246 246 245 245 246 247 248 249 251 253 253 252 251 251 251 253 254 255 255
234 234 234 233 233 233 233 233 233 233 234 234 235 236 237 237 237 238 238 239 239 240 240 241 242 242 243 243 243 243 244 244 246 246 247 246 246 245 245 245 244 244 244 244 244 244 244 244 244 244 244 245 245 245 245 246 246 247 249 251 253 253 252 252 252 252 254 255 256
234 235 235 235 235 235 234 234 234 234 234 235 235 236 236 237 237 237 238 239 239 239 240 240 240 241 242 243 243 244 244 245 246 247 247 246 245 244 243 243 243 243 243 243 243 243 243 243 243 243 243 244 244 245 245 245 245 246 248 250 252 253 253 253 253 253 253 254 255
234 234 235 235 236 236 235 235 235 235 235 236 236 237 237 237 237 238 239 240 240 241 241 242 242 243 243 244 245 245 245 246 247 248 248 246 245 243 242 242 242 242 242 242 242 242 243 243 243 242 242 243 244 244 245 246 246 247 248 249 251 252 253 253 253 253 253 253 255
234 234 235 235 236 236 236 236 236 236 236 237 238 238 239 239 239 239 240 241 242 242 243 244 245 245 246 246 247 246 246 246 246 246 247 246 244 243 241 241 241 240 240 241 241 242 242 242 242 242 242 243 243 244 245 246 247 247 248 249 250 251 252 252 252 252 252 253 254
234 235 235 236 237 237 237 237 238 238 238 239 240 240 241 241 241 241 241 242 243 244 244 245 246 247 247 248 248 247 246 245 245 244 245 245 243 242 241 240 240 239 239 240 241 241 241 242 242 242 242 243 243 244 245 246 247 247 248 249 250 251 252 252 252 252 252 253 254
234 235 235 236 237 238 239 239 239 240 240 241 241 242 242 242 242 242 243 243 243 244 245 245 246 246 247 247 247 247 245 244 243 243 243 243 243 242 240 240 239 239 239 239 240 240 241 241 241 242 242 243 243 244 245 245 246 247 247 248 250 251 252 253 253 254 254 254 255
233 234 234 235 236 238 239 239 240 241 242 242 242 243 243 243 243 243 243 243 244 244 244 245 245 245 246 246 246 245 244 243 242 242 242 243 242 241 240 240 239 239 239 239 239 240 240 240 241 241 242 242 243 244 244 245 245 246 247 248 250 252 253 254 254 254 255 255 255
234 234 234 234 235 236 237 239 240 240 241 242 242 243 243 243 244 244 244 244 244 244 245 245 245 245 245 245 245 244 244 243 242 242 242 242 241 240 240 239 239 239 239 239 239 240 240 240 240 241 241 242 243 243 244 244 245 245 246 248 249 250 252 253 253 254 254 253 253
234 234 234 234 235 235 236 237 238 239 240 241 242 242 243 243 243 244 244 244 245 245 245 245 245 245 245 244 244 243 243 242 242 242 242 241 240 239 239 238 238 238 238 238 239 239 239 239 239 240 240 241 242 243 243 243 244 245 245 246 247 249 250 251 252 252 252 251 252
235 236 236 236 236 236 237 237 238 239 239 240 241 242 242 243 243 243 244 244 245 245 245 245 246 245 245 244 243 243 242 242 242 242 242 241 239 238 238 237 237 237 237 237 237 238 238 238 239 239 239 240 241 241 242 242 243 244 244 245 246 247 248 249 250 250 251 251 252
237 237 237 238 237 237 238 238 238 239 239 240 241 241 242 242 242 243 243 244 244 245 245 246 246 246 245 244 243 242 242 241 241 241 241 239 238 237 237 236 236 236 236 236 236 236 237 238 238 238 239 239 240 241 241 242 242 242 243 244 245 247 248 249 250 250 251 252 253
241 240 240 240 239 239 239 239 239 239 240 240 240 241 241 241 242 242 243 243 244 245 245 246 245 245 244 243 242 241 241 240 240 239 239 237 236 235 235 235 235 235 235 235 235 236 236 237 238 238 238 239 240 241 242 242 242 242 242 243 245 248 250 251 252 252 252 253 254
245 244 243 242 242 241 241 240 240 240 240 240 241 241 241 241 242 242 242 243 243 244 244 245 244 244 243 242 241 240 239 238 237 237 236 235 233 233 233 234 234 234 234 234 235 236 236 237 237 238 239 240 241 242 242 242 242 242 242 243 245 248 251 253 254 254 254 254 254
249 247 246 245 244 243 242 242 242 242 242 242 242 242 242 242 242 242 242 242 242 242 243 243 242 242 241 240 239 237 236 235 234 233 233 232 232 232 232 233 234 234 234 234 235 235 236 237 238 238 239 240 241 242 243 243 243 243 243 244 246 248 251 253 255 256 256 256 256
249 249 247 246 245 244 244 243 243 243 244 244 243 243 243 243 242 242 242 241 241 241 240 240 239 239 238 237 236 235 234 233 232 231 231 231 231 231 232 233 234 235 235 235 234 234 235 236 237 238 239 240 241 242 243 244 244 244 245 245 246 248 250 253 255 256 257 258 258
250 249 248 247 246 245 244 244 244 244 244 244 244 244 243 243 242 241 241 240 239 238 238 237 237 236 235 234 233 232 231 230 230 231 231 231 231 231 231 232 234 235 236 235 234 234 235 235 236 238 239 240 241 242 243 244 245 245 246 247 248 249 251 253 255 256 258 259 260
253 252 251 248 247 246 245 244 244 244 244 244 244 243 242 241 241 240 239 238 237 236 235 234 234 233 232 231 230 228 228 228 229 230 231 231 231 230 230 230 232 233 235 235 234 234 235 235 236 237 239 240 241 242 243 244 245 246 247 248 249 250 252 253 255 256 257 259 260
256 255 253 251 249 247 246 245 244 244 244 243 243 242 241 240 239 238 236 235 235 234 233 232 231 230 229 227 226 225 225 226 227 229 229 230 230 230 229 228 229 231 233 234 235 235 235 235 236 238 239 240 242 243 244 245 246 247 248 249 250 251 252 254 255 256 257 259 260
256 255 254 253 251 248 246 245 244 244 243 242 241 240 238 237 236 235 234 233 232 231 230 229 229 227 225 223 223 223 224 226 226 227 228 229 229 229 228 227 228 230 233 235 236 236 236 236 237 238 239 241 242 243 244 245 246 247 248 249 250 252 253 254 255 256 257 259 260
256 255 253 251 249 247 245 244 243 242 242 241 239 237 235 234 233 232 231 231 230 229 229 228 226 224 222 220 221 222 224 225 226 226 226 227 227 227 226 226 228 230 232 234 235 235 235 235 236 236 237 239 241 243 244 245 246 247 248 250 251 252 253 254 256 257 258 259 260
256 253 251 248 246 244 242 241 240 240 240 239 237 235 233 232 231 230 230 229 228 228 227 226 223 221 219 219 219 221 222 223 223 224 224 225 224 224 224 225 226 228 229 230 231 233 234 235 235 235 236 237 240 242 244 246 247 248 249 250 252 253 254 255 256 258 259 260 261
253 250 246 243 240 238 237 237 237 237 236 236 234 233 231 230 229 228 228 227 226 225 224 222 220 218 217 217 218 220 220 219 219 220 221 222 222 222 222 223 225 226 227 227 229 232 234 235 236 236 236 237 240 243 245 247 249 250 251 252 253 254 254 256 257 258 260 261 262
249 245 240 236 233 231 230 230 231 231 231 231 230 228 227 226 226 225 224 224 223 222 220 219 217 216 216 217 218 218 218 216 216 217 218 219 220 221 223 225 227 228 229 229 231 233 235 236 236 237 237 239 241 243 246 248 249 250 251 252 253 254 255 256 258 259 260 262 262
247 243 237 230 226 223 222 223 224 225 225 225 224 223 223 222 222 221 221 220 219 218 217 216 215 215 216 217 218 218 216 215 215 216 218 219 220 223 225 228 230 231 232 232 234 235 236 237 237 238 238 240 242 244 245 247 248 249 250 251 253 254 256 257 259 260 261 262 263
243 238 231 225 221 218 218 219 220 221 221 220 220 221 221 221 220 220 219 217 216 215 215 215 215 215 217 218 218 217 216 215 216 217 218 220 221 224 226 229 231 232 233 234 235 236 236 236 236 237 238 239 241 243 244 246 247 248 250 251 253 255 256 258 259 261 262 264 265
232 226 221 218 217 218 219 220 220 219 218 217 217 218 219 221 222 221 219 217 215 214 214 214 215 216 217 218 217 216 216 216 217 218 220 221 222 224 226 228 229 230 231 232 233 233 233 234 234 235 237 239 241 243 244 245 247 248 250 252 253 255 257 259 260 262 263 265 266
219 216 214 214 216 219 222 222 221 218 216 216 216 215 215 218 221 221 218 215 212 212 212 214 214 215 215 214 214 214 215 217 218 219 220 221 222 224 225 226 227 228 228 229 230 231 231 232 234 235 237 239 241 243 245 246 248 249 251 252 254 256 258 260 261 263 264 265 266
205 205 206 210 215 220 223 225 223 219 217 217 215 213 211 213 215 212 208 204 202 201 202 204 204 206 207 207 208 210 212 214 215 216 217 218 220 221 223 224 226 227 227 228 229 231 233 234 236 238 239 241 243 245 247 248 250 251 252 254 256 258 259 261 262 263 264 265 266
202 200 201 204 209 215 220 222 220 217 215 215 214 214 214 214 208 199 192 189 188 189 189 190 191 193 196 199 201 204 207 209 211 212 213 216 218 221 223 225 227 228 230 231 233 235 236 238 240 241 243 244 246 247 249 250 251 253 254 255 257 258 259 261 262 263 264 265 266
213 210 208 207 208 210 213 213 211 209 209 209 211 215 219 218 210 200 191 185 184 186 188 190 191 193 194 195 196 197 199 203 207 210 214 217 221 225 227 229 231 233 235 237 238 239 241 242 244 245 246 247 248 250 251 251 252 254 255 256 257 258 260 261 262 263 264 265 266
222 220 217 215 212 210 209 207 206 205 206 207 212 219 222 219 213 208 202 195 190 187 188 189 191 193 195 195 196 196 197 200 205 211 216 220 225 228 230 233 235 237 240 241 243 243 244 245 246 247 247 248 250 251 252 253 254 255 256 257 258 259 261 262 264 265 265 266 267